[[{"header":{"parameterUnit":"m.s-1","parameterCategory":1,"la1":30.2991,"la2":30.254,"lo1":-89.0895,"lo2":-89.0444,"dy":0.0017,"dx":0.0017,"nx":28,"ny":28,"refTime":"2024-05-14T09:00:00:Z","depth":0,"parameterNumber":2,"parameterNumberName":"U-component_of_WINDS"},"data":[0,0,0,0,0,0,0,0,0,0,0,0,0,0,0,0,0,0,0,0,0,0,0,0,0,0,0,0,0,0,0,0,0,0,0,0,0,0,0,0,0,0,0,0,0,0,0,0,0,0,0,0,0,0,0,0,0,0,3.8159,3.816,0,3.8186,3.8186,3.8187,3.8164,3.8163,3.8162,3.8161,3.8193,3.8195,3.8197,0,0,0,0,0,0,0,0,0,0,0,0,0,3.8094,3.8095,3.8159,3.816,3.816,3.8186,3.8187,3.8187,3.8164,3.8163,3.8162,3.8161,3.8193,3.8195,3.8197,0,0,0,0,0,0,0,0,0,0,0,0,0,3.8122,3.8095,3.8159,3.8152,3.8151,3.8186,3.8187,3.8187,3.8165,3.8163,3.8162,3.816,3.8192,3.8194,3.8197,3.8242,0,0,3.8205,3.8206,0,0,0,0,0,0,0,0,3.812,3.8124,3.8153,3.8152,3.8152,3.817,3.8175,3.8205,3.8165,3.816,3.8161,3.816,3.8187,3.819,3.8198,3.8243,3.8244,3.8205,3.8207,3.8208,3.8209,0,0,0,0,0,0,0,3.8118,3.8123,3.817,3.8153,3.8153,3.8149,3.8151,3.8181,3.8181,3.816,3.8158,3.8162,3.8187,3.8196,3.8199,3.8245,3.8205,3.8207,3.8209,3.821,3.8331,3.8332,0,0,0,0,0,0,3.8116,3.8121,3.8169,3.8171,3.8132,3.8151,3.8154,3.8166,3.8181,3.8182,3.8163,3.8161,3.8192,3.8196,3.82,3.8254,3.8208,3.821,3.8212,3.8329,3.8331,3.8333,0,0,0,0,0,0,3.8115,3.8121,3.8168,3.8146,3.8151,3.8154,3.8168,3.8167,3.8176,3.8183,3.8183,3.8172,3.8191,3.8196,3.8232,3.8255,3.8211,3.8214,3.8327,3.833,3.8332,3.8363,0,0,0,0,0,0,3.8113,3.812,3.8136,3.8146,3.8153,3.8198,3.8169,3.8169,3.818,3.8178,3.8191,3.8192,3.819,3.8228,3.8234,3.8258,3.8216,3.8325,3.8328,3.8331,3.836,3.8367,3.8372,0,0,0,0,0,3.8111,3.8144,3.8137,3.8143,3.8172,3.8199,3.8203,3.8199,3.8182,3.8199,3.8204,3.8192,3.8252,3.8232,3.8239,3.8264,3.8323,3.8327,3.8331,3.8358,3.8365,3.8372,0,0,0,0,0,0,3.8138,3.8145,3.8137,3.8175,3.8186,3.8195,3.8216,3.8207,3.8225,3.8221,3.8217,3.822,3.8258,3.8264,3.8242,3.8309,3.8285,3.829,3.8303,3.8311,3.8316,3.8314,3.8218,0,0,0,0,0,3.8148,3.8168,3.8174,3.8207,3.8213,3.8214,3.8225,3.8221,3.8234,3.8239,3.8246,3.826,3.8282,3.8297,3.8317,3.8361,3.8365,3.8382,3.8388,3.8393,3.8398,3.8423,3.8432,3.8345,3.8345,3.8345,0,0,3.8169,3.8176,3.8189,3.8212,3.8221,3.8243,3.8218,3.8242,3.826,3.8243,3.8277,3.8283,3.8298,3.8339,3.8357,3.8345,3.8422,3.8398,3.8401,3.8404,3.8428,3.8436,3.8444,3.8347,3.8347,3.8347,0,0,3.822,3.8226,3.8255,3.8264,3.8277,3.8278,3.8285,3.8295,3.8298,3.8332,3.8321,3.8342,3.838,3.8392,3.8403,3.846,3.8451,3.8467,3.8498,3.8523,3.853,3.8536,3.8558,3.8566,3.8472,3.8472,3.8472,0,3.8245,3.8277,3.8271,3.8297,3.8308,3.8293,3.8323,3.8333,3.8353,3.8362,3.8348,3.8396,3.8406,3.845,3.8464,3.8473,3.8482,3.8465,3.853,3.8536,3.8541,3.8562,3.857,3.8474,3.8474,3.8474,3.8473,0,3.8309,3.8331,3.8353,3.8371,3.8385,3.8413,3.8413,3.8428,3.8423,3.8426,3.8462,3.8473,3.8496,3.8506,3.8502,3.8551,3.8543,3.853,3.8506,3.8551,3.8571,3.8579,3.8477,3.8476,3.8475,3.8475,0,0,3.8376,3.8391,3.84,3.8409,3.8423,3.8441,3.847,3.8491,3.8505,3.852,3.8545,3.8578,3.8566,3.8579,3.8576,3.8598,3.8645,3.8582,3.8583,3.8594,3.8701,3.8712,3.8721,3.8639,3.864,3.8641,3.87,0,3.8428,3.8475,3.8471,3.8517,3.8539,3.8526,3.8551,3.8564,3.8568,3.8589,3.8593,3.8617,3.8599,3.8607,3.8628,3.8635,3.8666,3.863,3.8664,3.8665,3.866,3.8731,3.8741,3.8796,3.8708,3.8709,3.871,0,3.8495,3.8511,3.8559,3.8571,3.858,3.8602,3.8623,3.8642,3.8658,3.8659,3.8674,3.8668,3.8699,3.8674,3.8718,3.8693,3.8707,3.8713,3.8715,3.8718,3.869,3.8737,3.8813,3.8822,3.8722,3.8721,3.872,0,3.8541,3.8575,3.8608,3.8616,3.8631,3.8647,3.8655,3.8668,3.8682,3.8701,3.871,3.8733,3.8745,3.8764,3.8765,3.8747,3.881,3.8785,3.8814,3.8814,3.8828,3.8827,3.8908,3.8836,3.8836,3.8836,3.8835,0,3.86,3.863,3.8629,3.865,3.8684,3.868,3.8714,3.872,3.8733,3.8756,3.8746,3.8769,3.8769,3.8792,3.8793,3.8831,3.8836,3.884,3.884,3.8841,3.884,3.885,3.8846,3.8838,3.8837,3.8837,3.8836,0,3.8657,3.8657,3.8693,3.8704,3.8708,3.8733,3.8743,3.8764,3.8767,3.8797,3.8804,3.881,3.8837,3.884,3.8872,3.8873,3.8918,3.8914,3.8912,3.8912,3.8941,3.8938,3.9032,3.9044,3.8963,3.8964,3.8964,0,3.8694,3.8717,3.8731,3.8745,3.8753,3.8776,3.879,3.8788,3.8804,3.8823,3.8842,3.8868,3.8889,3.8934,3.8942,3.8967,3.8964,3.8995,3.8968,3.8968,3.8966,3.8964,3.8967,3.9,3.9001,3.9002,3.9002,0,3.8762,3.8761,3.8781,3.8802,3.8818,3.8835,3.885,3.8863,3.8863,3.8882,3.8909,3.8925,3.8957,3.8984,3.9009,3.9019,3.9012,3.9011,3.9019,3.902,3.9019,3.9021,3.8928,3.9009,3.9008,3.9008,3.9007,3.9007,3.8811,3.8831,3.8844,3.8867,3.8879,3.8894,3.8914,3.892,3.8942,3.8967,3.8965,3.8996,3.9013,3.9045,3.9057,3.9082,3.9072,3.9083,3.9086,3.9089,3.9093,3.9015,3.9087,3.9086,3.9086,3.9086,3.9086,0,3.8879,3.8887,3.8908,3.8929,3.8948,3.8938,3.8955,3.8972,3.8999,3.9014,3.9035,3.9067,3.9093,3.9104,3.9131,3.9149,3.9146,3.9156,3.9155,3.9158,3.91,3.909,3.9158,3.9158,3.9158,3.9158,3.9158,3.9158,3.8916,3.895,3.8951,3.8992,3.9,3.9028,3.9039,3.9054,3.9066,3.9102,3.9124,3.913,3.9145,3.9172,3.9197,3.9199,3.921,3.9221,3.9223,3.9169,3.9161,3.9155,3.9146,3.9224,3.9224,3.9279,3.9279,3.928]},{"header":{"parameterUnit":"m.s-1","parameterCategory":1,"la1":30.2991,"la2":30.254,"lo1":-89.0895,"lo2":-89.0444,"dy":0.0017,"dx":0.0017,"nx":28,"ny":28,"refTime":"2024-05-14T09:00:00:Z","depth":0,"parameterNumber":3,"parameterNumberName":"V-component_of_WINDS"},"data":[0,0,0,0,0,0,0,0,0,0,0,0,0,0,0,0,0,0,0,0,0,0,0,0,0,0,0,0,0,0,0,0,0,0,0,0,0,0,0,0,0,0,0,0,0,0,0,0,0,0,0,0,0,0,0,0,0,0,1.1167,1.1169,0,1.1311,1.1312,1.1314,1.137,1.137,1.1369,1.1369,1.1518,1.1522,1.1526,0,0,0,0,0,0,0,0,0,0,0,0,0,1.0941,1.0945,1.1167,1.1169,1.1171,1.131,1.1312,1.1314,1.137,1.137,1.1369,1.1369,1.1516,1.1521,1.1526,0,0,0,0,0,0,0,0,0,0,0,0,0,1.1057,1.0946,1.1167,1.1215,1.1221,1.131,1.1312,1.1315,1.137,1.137,1.1369,1.1368,1.1514,1.1521,1.1527,1.1579,0,0,1.1547,1.155,0,0,0,0,0,0,0,0,1.1051,1.1066,1.1206,1.1212,1.1219,1.1322,1.1287,1.1403,1.137,1.1314,1.1369,1.1368,1.1453,1.1465,1.1493,1.1586,1.1592,1.1548,1.1551,1.1554,1.1556,0,0,0,0,0,0,0,1.1043,1.106,1.1224,1.1208,1.1216,1.123,1.1246,1.131,1.1385,1.1319,1.1323,1.1339,1.1456,1.1486,1.1497,1.1594,1.1547,1.1553,1.1557,1.156,1.1735,1.1735,0,0,0,0,0,0,1.1027,1.1053,1.1219,1.1228,1.1132,1.1234,1.1252,1.1289,1.1384,1.1398,1.1339,1.1341,1.1476,1.1489,1.1502,1.1568,1.1554,1.156,1.1564,1.1734,1.1735,1.1736,0,0,0,0,0,0,1.1021,1.1041,1.1214,1.1142,1.1165,1.1239,1.128,1.1292,1.1323,1.14,1.1414,1.1356,1.1476,1.1493,1.1559,1.1574,1.1563,1.1569,1.1733,1.1734,1.1735,1.17,0,0,0,0,0,0,1.1015,1.1039,1.1059,1.1142,1.1168,1.1268,1.1281,1.1296,1.1333,1.1337,1.142,1.1433,1.1477,1.1549,1.1565,1.1582,1.1574,1.1732,1.1734,1.1735,1.17,1.1699,1.1699,0,0,0,0,0,1.1006,1.1044,1.106,1.108,1.1196,1.1268,1.1284,1.1333,1.1334,1.1355,1.1405,1.143,1.1569,1.1555,1.1574,1.1593,1.1731,1.1733,1.1735,1.17,1.1699,1.1699,0,0,0,0,0,0,1.0963,1.1056,1.1075,1.114,1.1196,1.1278,1.1306,1.1331,1.1388,1.1389,1.1448,1.1466,1.1527,1.1567,1.1549,1.1647,1.1652,1.1658,1.1619,1.1619,1.1619,1.1608,1.158,0,0,0,0,0,1.0961,1.1012,1.1091,1.1141,1.1168,1.1232,1.1265,1.1298,1.1358,1.1382,1.1437,1.1495,1.1551,1.1587,1.1644,1.1705,1.1724,1.1728,1.1727,1.1727,1.1731,1.1765,1.1767,1.1741,1.1741,1.1741,0,0,1.0958,1.1015,1.1044,1.1134,1.1181,1.1232,1.1251,1.1306,1.1344,1.1391,1.1456,1.1497,1.1566,1.1629,1.166,1.1664,1.1742,1.1729,1.1728,1.1733,1.1767,1.1769,1.1771,1.1742,1.1742,1.1742,0,0,1.0977,1.1026,1.1072,1.1118,1.1189,1.123,1.1241,1.1319,1.1348,1.1414,1.1449,1.1496,1.1593,1.1639,1.1676,1.171,1.1735,1.1726,1.1725,1.1757,1.1759,1.1761,1.1773,1.1776,1.173,1.173,1.173,0,1.0964,1.1043,1.1093,1.1145,1.1183,1.1226,1.1273,1.1315,1.14,1.1426,1.1429,1.155,1.1599,1.1673,1.1681,1.1709,1.1723,1.1718,1.1755,1.1757,1.176,1.1772,1.1776,1.1729,1.1729,1.1729,1.1729,0,1.1023,1.1077,1.1106,1.1185,1.1227,1.1276,1.1333,1.1369,1.1397,1.1438,1.1503,1.1563,1.1632,1.1652,1.1681,1.1729,1.173,1.1743,1.1749,1.176,1.1772,1.1777,1.1727,1.1727,1.1728,1.1728,0,0,1.1022,1.1126,1.1136,1.1172,1.1251,1.1294,1.1344,1.141,1.1439,1.1495,1.1538,1.1618,1.163,1.1671,1.1705,1.1733,1.1755,1.1743,1.1746,1.1743,1.1811,1.18,1.1805,1.1772,1.1773,1.1774,1.1805,0,1.1051,1.1143,1.1188,1.126,1.1309,1.135,1.1393,1.1446,1.1485,1.1533,1.1577,1.1632,1.1644,1.1669,1.1698,1.1746,1.177,1.1744,1.1812,1.1814,1.1794,1.1811,1.1801,1.1828,1.181,1.1811,1.1812,0,1.1099,1.1154,1.123,1.1301,1.1324,1.1362,1.1425,1.147,1.1531,1.1557,1.1601,1.1634,1.1688,1.1689,1.1763,1.1745,1.1775,1.1803,1.1805,1.1814,1.1814,1.182,1.1838,1.1841,1.1819,1.1819,1.1818,0,1.1089,1.1182,1.1239,1.1268,1.1354,1.1379,1.1416,1.1476,1.1512,1.1566,1.159,1.1651,1.1684,1.173,1.1778,1.1775,1.1847,1.1853,1.1871,1.1869,1.1885,1.1883,1.1908,1.1904,1.1904,1.1904,1.1904,0,1.1118,1.1163,1.1235,1.127,1.1321,1.1372,1.1421,1.1461,1.1513,1.1557,1.1595,1.1635,1.1696,1.1743,1.1781,1.1836,1.1851,1.1874,1.1884,1.1871,1.1868,1.1892,1.1891,1.1905,1.1905,1.1905,1.1904,0,1.1116,1.1166,1.1231,1.1305,1.1325,1.1359,1.1423,1.1458,1.1498,1.1552,1.1568,1.1631,1.1688,1.174,1.1817,1.1843,1.1898,1.1911,1.1878,1.1883,1.1897,1.1895,1.1938,1.1946,1.1937,1.1937,1.1937,0,1.1131,1.1166,1.1243,1.1274,1.131,1.136,1.1396,1.1448,1.1484,1.1554,1.158,1.164,1.1691,1.178,1.1833,1.1892,1.1906,1.1916,1.1915,1.19,1.1905,1.1902,1.1906,1.1916,1.1916,1.1916,1.1916,0,1.1152,1.1174,1.1225,1.1284,1.1325,1.1374,1.1425,1.1448,1.1509,1.1547,1.1605,1.1645,1.1721,1.178,1.1844,1.1882,1.1909,1.1915,1.1922,1.191,1.1889,1.19,1.1876,1.1914,1.1915,1.1915,1.1915,1.1915,1.1158,1.1191,1.125,1.1304,1.1347,1.1392,1.1429,1.1472,1.1522,1.1588,1.1615,1.1674,1.1732,1.182,1.1858,1.1904,1.191,1.192,1.1923,1.1925,1.1922,1.1881,1.1916,1.1916,1.1916,1.1917,1.1917,0,1.1181,1.122,1.127,1.1338,1.138,1.14,1.1456,1.1491,1.1542,1.1593,1.1642,1.1708,1.1764,1.1821,1.188,1.1907,1.192,1.1921,1.1919,1.1927,1.1914,1.1902,1.1908,1.1908,1.1908,1.1908,1.1908,1.1908,1.1197,1.1253,1.1282,1.1358,1.1398,1.1455,1.1485,1.1527,1.1568,1.164,1.1687,1.1723,1.1776,1.1839,1.1892,1.1907,1.1927,1.1923,1.1942,1.1928,1.1929,1.1929,1.1917,1.1927,1.1927,1.1952,1.1952,1.1952]}]]